This is the latest recevied weather packets stored in our database for station/object IU0SZS-10. If no packets are shown the sender has not sent any weather packets the latest 1 day(s).
| Time | Temp. | Humidity | Pressure | Rain* | Wind** | Luminosity | Snow |
|---|---|---|---|---|---|---|---|
| 1778045471 | 8.89° C | 89% | 914.1 hPa | - | - | - | - |
| 1778043670 | 8.89° C | 91% | 914.1 hPa | - | - | - | - |
| 1778042770 | 8.89° C | 92% | 914.2 hPa | - | - | - | - |
| 1778041870 | 8.89° C | 93% | 914.2 hPa | - | - | - | - |
| 1778040970 | 8.89° C | 94% | 914 hPa | - | - | - | - |
| 1778040070 | 8.89° C | 95% | 914.1 hPa | - | - | - | - |
| 1778039169 | 8.89° C | 95% | 914.2 hPa | - | - | - | - |
| 1778037369 | 9.44° C | 91% | 914.2 hPa | - | - | - | - |
| 1778036469 | 9.44° C | 91% | 914.2 hPa | - | - | - | - |
| 1778035569 | 9.44° C | 91% | 914.2 hPa | - | - | - | - |
| 1778033768 | 9.44° C | 91% | 914.4 hPa | - | - | - | - |
| 1778031968 | 10° C | 91% | 914.6 hPa | - | - | - | - |
| 1778031099 | 10° C | 91% | 914.5 hPa | - | - | - | - |
| 1778031068 | 10° C | 91% | 914.5 hPa | - | - | - | - |
| 1778030168 | 10° C | 91% | 914.6 hPa | - | - | - | - |
| 1778027498 | 10° C | 94% | 914.9 hPa | - | - | - | - |
| 1778026567 | 10° C | 94% | 914.8 hPa | - | - | - | - |
| 1778024767 | 10° C | 93% | 915.1 hPa | - | - | - | - |
| 1778014865 | 10.56° C | 95% | 916.1 hPa | - | - | - | - |
| 1778013965 | 10.56° C | 95% | 916.2 hPa | - | - | - | - |
| 1778008563 | 10.56° C | 94% | 915.7 hPa | - | - | - | - |
| 1778007663 | 10.56° C | 94% | 915.5 hPa | - | - | - | - |
* Rain since midnight (hover to see other rain measurements)
** Current wind speed in m/s (hover to see current wind gust speed)